Private Wetterstation Wechselburg
Wetterdaten: Donnerstag, 03.05.2018
Datum Zeit Temp. +2m Bodentemp. Temp.+5cm Temp. Wind Windchill X Diff Temp. Feuchte +2m Feuchte +5cm Luftdruck Regen Wind Richtung Richtung Sonnenschein Taupunkt Windchill Windben
03.05.2018 00:00 10,8 C 13,8 C 10,4 C 10,4 C 9,5 C 0,0 C 81 % 87 % 1010,9 hPa 0,0 l/m 0,0 km/h (0 Bft) O-SO 112 0 min 7,7 C 9,5 C 0,0 km/h (0 Bft)
03.05.2018 00:05 10,7 C 13,8 C 10,4 C 10,4 C 9,7 C 0,0 C 82 % 87 % 1010,9 hPa 0,0 l/m 0,0 km/h (0 Bft) N 360 0 min 7,8 C 9,7 C 0,0 km/h (0 Bft)
03.05.2018 00:10 10,7 C 13,9 C 10,4 C 10,4 C 9,8 C 0,0 C 82 % 87 % 1010,9 hPa 0,0 l/m 0,0 km/h (0 Bft) W 270 0 min 7,8 C 9,8 C 0,0 km/h (0 Bft)
03.05.2018 00:15 10,7 C 14,2 C 10,4 C 10,4 C 9,8 C 0,0 C 83 % 88 % 1011,2 hPa 0,0 l/m 0,0 km/h (0 Bft) O-NO 67 0 min 7,9 C 9,8 C 0,0 km/h (0 Bft)
03.05.2018 00:20 10,7 C 14,2 C 10,4 C 10,4 C 9,9 C 0,0 C 83 % 89 % 1011,2 hPa 0,0 l/m 0,0 km/h (0 Bft) O-NO 67 0 min 7,9 C 9,9 C 0,0 km/h (0 Bft)
03.05.2018 00:25 10,7 C 14,2 C 10,4 C 10,5 C 10,0 C 0,0 C 83 % 89 % 1011,2 hPa 0,0 l/m 0,0 km/h (0 Bft) O-NO 67 0 min 7,9 C 10,0 C 0,0 km/h (0 Bft)
03.05.2018 00:30 10,7 C 14,1 C 10,4 C 10,5 C 10,0 C 0,0 C 84 % 89 % 1011,2 hPa 0,0 l/m 0,0 km/h (0 Bft) O-NO 67 0 min 8,1 C 10,0 C 0,0 km/h (0 Bft)
03.05.2018 00:35 10,5 C 14,2 C 10,5 C 10,4 C 10,1 C 0,0 C 84 % 89 % 1010,8 hPa 0,0 l/m 0,0 km/h (0 Bft) W 270 0 min 7,9 C 10,1 C 0,0 km/h (0 Bft)
03.05.2018 00:40 10,5 C 14,1 C 10,6 C 10,4 C 10,1 C 0,0 C 84 % 89 % 1010,8 hPa 0,0 l/m 0,0 km/h (0 Bft) W 270 0 min 7,9 C 10,1 C 0,0 km/h (0 Bft)
03.05.2018 00:45 10,5 C 14,2 C 10,7 C 10,4 C 10,3 C 0,0 C 84 % 89 % 1010,8 hPa 0,0 l/m 0,2 km/h (0 Bft) S 180 0 min 7,9 C 10,3 C 2,4 km/h (1 Bft)
03.05.2018 00:50 10,5 C 14,2 C 10,7 C 10,4 C 10,2 C 0,0 C 84 % 89 % 1010,8 hPa 0,0 l/m 0,2 km/h (0 Bft) S-SO 157 0 min 7,9 C 10,2 C 0,0 km/h (0 Bft)
03.05.2018 00:55 10,5 C 14,2 C 10,6 C 10,4 C 10,1 C 0,0 C 84 % 89 % 1011,3 hPa 0,0 l/m 0,0 km/h (0 Bft) SO 135 0 min 7,9 C 10,1 C 0,0 km/h (0 Bft)
03.05.2018 01:00 10,4 C 14,1 C 10,7 C 10,3 C 10,1 C 0,0 C 84 % 89 % 1011,3 hPa 0,0 l/m 0,0 km/h (0 Bft) NW 315 0 min 7,8 C 10,1 C 0,0 km/h (0 Bft)
03.05.2018 01:05 10,4 C 14,1 C 10,7 C 10,3 C 10,1 C 0,0 C 85 % 89 % 1011,3 hPa 0,0 l/m 0,5 km/h (0 Bft) O-NO 67 0 min 8,0 C 10,1 C 0,0 km/h (0 Bft)
03.05.2018 01:10 10,4 C 14,1 C 10,7 C 10,3 C 10,1 C 0,0 C 85 % 89 % 1011,3 hPa 0,0 l/m 0,5 km/h (0 Bft) NO 45 0 min 8,0 C 10,1 C 0,0 km/h (0 Bft)
03.05.2018 01:15 10,3 C 14,1 C 10,8 C 10,3 C 10,2 C 0,0 C 85 % 89 % 1011,6 hPa 0,0 l/m 0,2 km/h (0 Bft) SW 225 0 min 7,9 C 10,2 C 0,0 km/h (0 Bft)
03.05.2018 01:20 10,3 C 14,1 C 10,9 C 10,3 C 10,2 C 0,0 C 85 % 88 % 1011,6 hPa 0,0 l/m 0,2 km/h (0 Bft) W-NW 292 0 min 7,9 C 10,2 C 0,0 km/h (0 Bft)
03.05.2018 01:25 10,3 C 14,1 C 10,8 C 10,3 C 10,3 C 0,0 C 85 % 88 % 1011,6 hPa 0,0 l/m 0,3 km/h (0 Bft) O-NO 67 0 min 7,9 C 10,3 C 4,0 km/h (1 Bft)
03.05.2018 01:30 10,3 C 14,1 C 10,9 C 10,3 C 10,3 C 0,0 C 86 % 88 % 1011,6 hPa 0,0 l/m 1,1 km/h (1 Bft) O 90 0 min 8,1 C 10,3 C 0,0 km/h (0 Bft)
03.05.2018 01:35 10,3 C 14,1 C 11,0 C 10,3 C 10,3 C 0,0 C 86 % 87 % 1011,4 hPa 0,0 l/m 1,4 km/h (1 Bft) S 180 0 min 8,1 C 10,3 C 1,6 km/h (1 Bft)
03.05.2018 01:40 10,3 C 14,1 C 11,0 C 10,3 C 10,3 C 0,0 C 86 % 87 % 1011,4 hPa 0,0 l/m 1,0 km/h (0 Bft) SW 225 0 min 8,1 C 10,3 C 2,3 km/h (1 Bft)
03.05.2018 01:45 10,2 C 14,1 C 11,0 C 10,2 C 10,2 C 0,0 C 85 % 86 % 1011,4 hPa 0,0 l/m 1,8 km/h (1 Bft) S 180 0 min 7,8 C 10,2 C 4,5 km/h (1 Bft)
03.05.2018 01:50 10,1 C 14,1 C 10,9 C 10,1 C 10,1 C 0,0 C 85 % 86 % 1011,4 hPa 0,0 l/m 1,4 km/h (1 Bft) O-NO 67 0 min 7,7 C 10,1 C 0,0 km/h (0 Bft)
03.05.2018 01:55 10,0 C 14,1 C 10,9 C 10,1 C 10,1 C 0,1 C 85 % 86 % 1012,1 hPa 0,7 l/m 0,5 km/h (0 Bft) NO 45 0 min 7,6 C 10,1 C 0,0 km/h (0 Bft)
03.05.2018 02:00 10,0 C 14,1 C 10,9 C 10,1 C 10,1 C 0,1 C 85 % 85 % 1012,1 hPa 0,0 l/m 0,2 km/h (0 Bft) NO 45 0 min 7,6 C 10,1 C 0,0 km/h (0 Bft)
03.05.2018 02:05 10,0 C 14,1 C 10,8 C 10,1 C 10,1 C 0,1 C 85 % 83 % 1012,1 hPa 0,0 l/m 0,3 km/h (0 Bft) SW 225 0 min 7,6 C 10,1 C 0,0 km/h (0 Bft)
03.05.2018 02:10 10,0 C 14,1 C 10,9 C 10,1 C 10,1 C 0,1 C 85 % 82 % 1012,1 hPa 0,7 l/m 0,3 km/h (0 Bft) SW 225 0 min 7,6 C 10,1 C 0,0 km/h (0 Bft)
03.05.2018 02:15 9,9 C 14,0 C 10,9 C 10,1 C 10,1 C 0,2 C 85 % 81 % 1011,7 hPa 0,0 l/m 0,3 km/h (0 Bft) S-SO 157 0 min 7,5 C 10,1 C 0,0 km/h (0 Bft)
03.05.2018 02:20 9,9 C 14,0 C 10,9 C 10,1 C 10,1 C 0,2 C 85 % 80 % 1011,7 hPa 0,0 l/m 0,3 km/h (0 Bft) W-SW 247 0 min 7,5 C 10,1 C 0,0 km/h (0 Bft)
03.05.2018 02:25 9,9 C 14,0 C 10,9 C 10,1 C 10,1 C 0,2 C 85 % 79 % 1011,7 hPa 0,7 l/m 0,0 km/h (0 Bft) O-NO 67 0 min 7,5 C 10,1 C 0,0 km/h (0 Bft)
03.05.2018 02:30 9,8 C 14,0 C 10,8 C 10,1 C 10,1 C 0,3 C 86 % 79 % 1011,7 hPa 0,7 l/m 0,0 km/h (0 Bft) SO 135 0 min 7,6 C 10,1 C 0,0 km/h (0 Bft)
03.05.2018 02:35 9,9 C 14,0 C 10,8 C 10,1 C 10,1 C 0,2 C 86 % 78 % 1011,5 hPa 0,0 l/m 0,5 km/h (0 Bft) SW 225 0 min 7,7 C 10,1 C 0,0 km/h (0 Bft)
03.05.2018 02:40 9,9 C 14,0 C 10,7 C 10,0 C 10,0 C 0,1 C 86 % 77 % 1011,5 hPa 0,0 l/m 0,5 km/h (0 Bft) W-SW 247 0 min 7,7 C 10,0 C 0,0 km/h (0 Bft)
03.05.2018 02:45 9,8 C 14,0 C 10,7 C 10,0 C 10,0 C 0,2 C 86 % 76 % 1011,5 hPa 0,0 l/m 0,5 km/h (0 Bft) W-SW 247 0 min 7,6 C 10,0 C 2,3 km/h (1 Bft)
03.05.2018 02:50 9,7 C 14,0 C 10,5 C 10,0 C 10,0 C 0,3 C 86 % 75 % 1011,5 hPa 0,0 l/m 1,0 km/h (0 Bft) SW 225 0 min 7,5 C 10,0 C 0,0 km/h (0 Bft)
03.05.2018 02:55 9,7 C 13,9 C 10,4 C 9,9 C 9,9 C 0,2 C 86 % 75 % 1011,1 hPa 0,0 l/m 0,6 km/h (0 Bft) O-NO 67 0 min 7,5 C 9,9 C 0,0 km/h (0 Bft)
03.05.2018 03:00 9,6 C 13,9 C 10,4 C 9,9 C 9,9 C 0,3 C 86 % 75 % 1011,1 hPa 0,0 l/m 0,2 km/h (0 Bft) O-NO 67 0 min 7,4 C 9,9 C 0,0 km/h (0 Bft)
03.05.2018 03:05 9,6 C 13,9 C 10,4 C 9,9 C 9,9 C 0,3 C 86 % 74 % 1011,1 hPa 0,0 l/m 0,0 km/h (0 Bft) NO 45 0 min 7,4 C 9,9 C 0,0 km/h (0 Bft)
03.05.2018 03:10 9,6 C 13,9 C 10,3 C 9,9 C 9,9 C 0,3 C 86 % 73 % 1011,1 hPa 0,0 l/m 0,0 km/h (0 Bft) SO 135 0 min 7,4 C 9,9 C 0,0 km/h (0 Bft)
03.05.2018 03:15 9,5 C 13,9 C 10,3 C 9,9 C 9,9 C 0,4 C 86 % 72 % 1011,2 hPa 0,0 l/m 0,2 km/h (0 Bft) S-SO 157 0 min 7,3 C 9,9 C 2,3 km/h (1 Bft)
03.05.2018 03:20 9,5 C 13,9 C 10,2 C 9,9 C 9,9 C 0,4 C 86 % 72 % 1011,2 hPa 0,0 l/m 1,1 km/h (1 Bft) N-NW 337 0 min 7,3 C 9,9 C 2,9 km/h (1 Bft)
03.05.2018 03:25 9,4 C 13,9 C 10,2 C 9,9 C 9,9 C 0,5 C 86 % 71 % 1011,2 hPa 0,0 l/m 1,9 km/h (1 Bft) SW 225 0 min 7,2 C 9,9 C 1,8 km/h (1 Bft)
03.05.2018 03:30 9,5 C 13,9 C 10,2 C 9,9 C 9,9 C 0,4 C 86 % 71 % 1011,2 hPa 0,0 l/m 2,3 km/h (1 Bft) W-SW 247 0 min 7,3 C 9,9 C 4,0 km/h (1 Bft)
03.05.2018 03:35 9,3 C 13,9 C 10,1 C 9,8 C 9,8 C 0,5 C 86 % 71 % 1011,6 hPa 0,0 l/m 2,6 km/h (1 Bft) S-SW 202 0 min 7,1 C 9,8 C 5,6 km/h (1 Bft)
03.05.2018 03:40 9,3 C 13,9 C 10,0 C 9,7 C 9,7 C 0,4 C 86 % 71 % 1011,6 hPa 0,0 l/m 2,1 km/h (1 Bft) S 180 0 min 7,1 C 9,7 C 3,9 km/h (1 Bft)
03.05.2018 03:45 9,3 C 13,9 C 10,1 C 9,7 C 9,7 C 0,4 C 86 % 70 % 1011,6 hPa 0,0 l/m 1,8 km/h (1 Bft) W 270 0 min 7,1 C 9,7 C 2,3 km/h (1 Bft)
03.05.2018 03:50 9,2 C 13,9 C 9,9 C 9,6 C 9,6 C 0,4 C 86 % 70 % 1011,6 hPa 0,0 l/m 1,3 km/h (1 Bft) O 90 0 min 7,0 C 9,6 C 0,0 km/h (0 Bft)
03.05.2018 03:55 9,1 C 13,9 C 9,9 C 9,6 C 9,6 C 0,5 C 86 % 70 % 1011,8 hPa 0,0 l/m 0,2 km/h (0 Bft) W-SW 247 0 min 6,9 C 9,6 C 0,0 km/h (0 Bft)
03.05.2018 04:00 9,1 C 13,9 C 9,9 C 9,5 C 9,5 C 0,4 C 86 % 70 % 1011,8 hPa 0,0 l/m 0,0 km/h (0 Bft) S 180 0 min 6,9 C 9,5 C 0,0 km/h (0 Bft)
03.05.2018 04:05 9,0 C 13,9 C 9,8 C 9,5 C 9,5 C 0,5 C 86 % 69 % 1011,8 hPa 0,0 l/m 0,0 km/h (0 Bft) SW 225 0 min 6,8 C 9,5 C 0,0 km/h (0 Bft)
03.05.2018 04:10 9,1 C 13,9 C 9,9 C 9,5 C 9,5 C 0,4 C 86 % 69 % 1011,8 hPa 0,0 l/m 0,0 km/h (0 Bft) NO 45 0 min 6,9 C 9,5 C 1,6 km/h (1 Bft)
03.05.2018 04:15 8,9 C 13,9 C 9,8 C 9,4 C 9,4 C 0,5 C 86 % 69 % 1011,1 hPa 0,0 l/m 0,3 km/h (0 Bft) O-NO 67 0 min 6,7 C 9,4 C 0,0 km/h (0 Bft)
03.05.2018 04:20 8,9 C 13,9 C 9,7 C 9,4 C 9,4 C 0,5 C 86 % 69 % 1011,1 hPa 0,0 l/m 0,3 km/h (0 Bft) O-NO 67 0 min 6,7 C 9,4 C 0,0 km/h (0 Bft)
03.05.2018 04:25 8,8 C 13,9 C 9,6 C 9,4 C 9,4 C 0,6 C 86 % 69 % 1011,1 hPa 0,0 l/m 0,0 km/h (0 Bft) O-NO 67 0 min 6,6 C 9,4 C 0,0 km/h (0 Bft)
03.05.2018 04:30 8,8 C 13,9 C 9,6 C 9,4 C 9,4 C 0,6 C 86 % 69 % 1011,1 hPa 0,0 l/m 0,0 km/h (0 Bft) O-NO 67 0 min 6,6 C 9,4 C 1,6 km/h (1 Bft)
03.05.2018 04:35 8,8 C 13,9 C 9,6 C 9,4 C 9,4 C 0,6 C 86 % 69 % 1011,2 hPa 0,0 l/m 0,6 km/h (0 Bft) NW 315 0 min 6,6 C 9,4 C 0,0 km/h (0 Bft)
03.05.2018 04:40 8,8 C 13,9 C 9,6 C 9,4 C 9,4 C 0,6 C 86 % 69 % 1011,2 hPa 0,0 l/m 0,6 km/h (0 Bft) O 90 0 min 6,6 C 9,4 C 0,0 km/h (0 Bft)
03.05.2018 04:45 8,7 C 13,9 C 9,6 C 9,4 C 9,4 C 0,7 C 86 % 68 % 1011,2 hPa 0,0 l/m 0,0 km/h (0 Bft) O-NO 67 0 min 6,5 C 9,4 C 0,0 km/h (0 Bft)
03.05.2018 04:50 8,7 C 13,8 C 9,6 C 9,4 C 9,4 C 0,7 C 87 % 68 % 1011,2 hPa 0,0 l/m 0,2 km/h (0 Bft) NO 45 0 min 6,7 C 9,4 C 0,0 km/h (0 Bft)
03.05.2018 04:55 8,7 C 13,8 C 9,5 C 9,4 C 9,4 C 0,7 C 87 % 68 % 1011,9 hPa 0,0 l/m 0,3 km/h (0 Bft) N-NO 22 0 min 6,7 C 9,4 C 0,0 km/h (0 Bft)
03.05.2018 05:00 8,7 C 13,8 C 9,6 C 9,4 C 9,4 C 0,7 C 87 % 68 % 1011,9 hPa 0,0 l/m 0,2 km/h (0 Bft) N 360 0 min 6,7 C 9,4 C 0,0 km/h (0 Bft)
03.05.2018 05:05 8,7 C 13,8 C 9,7 C 9,4 C 9,4 C 0,7 C 87 % 68 % 1011,9 hPa 0,0 l/m 0,0 km/h (0 Bft) SW 225 0 min 6,7 C 9,4 C 0,0 km/h (0 Bft)
03.05.2018 05:10 8,7 C 13,8 C 9,6 C 9,5 C 9,5 C 0,8 C 87 % 67 % 1011,9 hPa 0,0 l/m 0,2 km/h (0 Bft) SW 225 0 min 6,7 C 9,5 C 1,9 km/h (1 Bft)
03.05.2018 05:15 8,7 C 13,8 C 9,7 C 9,6 C 9,6 C 0,9 C 87 % 67 % 1012,1 hPa 0,0 l/m 0,5 km/h (0 Bft) W 270 0 min 6,7 C 9,6 C 0,0 km/h (0 Bft)
03.05.2018 05:20 8,7 C 13,8 C 9,7 C 9,6 C 9,6 C 0,9 C 87 % 67 % 1012,1 hPa 0,0 l/m 0,6 km/h (0 Bft) SW 225 0 min 6,7 C 9,6 C 0,0 km/h (0 Bft)
03.05.2018 05:25 8,7 C 13,8 C 9,7 C 9,6 C 9,6 C 0,9 C 87 % 67 % 1012,1 hPa 0,0 l/m 0,5 km/h (0 Bft) W 270 0 min 6,7 C 9,6 C 0,0 km/h (0 Bft)
03.05.2018 05:30 8,6 C 13,8 C 9,7 C 9,6 C 9,6 C 1,0 C 87 % 67 % 1012,1 hPa 0,0 l/m 0,3 km/h (0 Bft) SW 225 0 min 6,6 C 9,6 C 0,0 km/h (0 Bft)
03.05.2018 05:35 8,6 C 13,8 C 9,7 C 9,6 C 9,6 C 1,0 C 87 % 66 % 1012,1 hPa 0,0 l/m 0,2 km/h (0 Bft) SW 225 0 min 6,6 C 9,6 C 0,0 km/h (0 Bft)
03.05.2018 05:40 8,6 C 13,8 C 9,7 C 9,6 C 9,6 C 1,0 C 87 % 66 % 1012,1 hPa 0,0 l/m 0,2 km/h (0 Bft) SW 225 0 min 6,6 C 9,6 C 0,0 km/h (0 Bft)
03.05.2018 05:45 8,7 C 13,8 C 9,7 C 9,6 C 9,6 C 0,9 C 87 % 66 % 1012,1 hPa 0,0 l/m 0,2 km/h (0 Bft) SW 225 0 min 6,7 C 9,6 C 1,8 km/h (1 Bft)
03.05.2018 05:50 8,7 C 13,8 C 9,7 C 9,6 C 9,6 C 0,9 C 87 % 66 % 1012,1 hPa 0,0 l/m 0,6 km/h (0 Bft) S 180 0 min 6,7 C 9,6 C 0,0 km/h (0 Bft)
03.05.2018 05:55 8,6 C 13,8 C 9,6 C 9,5 C 9,5 C 0,9 C 87 % 66 % 1011,9 hPa 0,0 l/m 0,6 km/h (0 Bft) W-SW 247 5 min 6,6 C 9,5 C 2,3 km/h (1 Bft)
03.05.2018 06:00 8,7 C 13,8 C 9,6 C 9,4 C 9,4 C 0,7 C 87 % 66 % 1011,9 hPa 0,0 l/m 0,5 km/h (0 Bft) W-SW 247 5 min 6,7 C 9,4 C 1,8 km/h (1 Bft)
03.05.2018 06:05 8,5 C 13,8 C 9,6 C 9,4 C 9,4 C 0,9 C 87 % 66 % 1011,9 hPa 0,0 l/m 0,8 km/h (0 Bft) S 180 5 min 6,5 C 9,4 C 3,1 km/h (1 Bft)
03.05.2018 06:10 8,5 C 13,8 C 9,5 C 9,3 C 9,3 C 0,8 C 87 % 66 % 1011,9 hPa 0,0 l/m 0,6 km/h (0 Bft) SW 225 5 min 6,5 C 9,3 C 0,0 km/h (0 Bft)
03.05.2018 06:15 8,5 C 13,8 C 9,5 C 9,2 C 9,2 C 0,7 C 87 % 66 % 1011,4 hPa 0,0 l/m 0,5 km/h (0 Bft) S 180 0 min 6,5 C 9,2 C 0,0 km/h (0 Bft)
03.05.2018 06:20 8,4 C 13,8 C 9,5 C 9,2 C 9,2 C 0,8 C 87 % 66 % 1011,4 hPa 0,0 l/m 0,2 km/h (0 Bft) SW 225 0 min 6,4 C 9,2 C 0,0 km/h (0 Bft)
03.05.2018 06:25 8,4 C 13,8 C 9,5 C 9,1 C 9,1 C 0,7 C 87 % 66 % 1011,4 hPa 0,0 l/m 0,2 km/h (0 Bft) SW 225 0 min 6,4 C 9,1 C 0,0 km/h (0 Bft)
03.05.2018 06:30 8,4 C 13,8 C 9,4 C 9,1 C 9,1 C 0,7 C 87 % 66 % 1011,4 hPa 0,0 l/m 0,0 km/h (0 Bft) SW 225 0 min 6,4 C 9,1 C 0,0 km/h (0 Bft)
03.05.2018 06:35 8,4 C 13,8 C 9,3 C 9,2 C 9,2 C 0,8 C 87 % 66 % 1011,6 hPa 0,0 l/m 0,2 km/h (0 Bft) SO 135 0 min 6,4 C 9,2 C 1,9 km/h (1 Bft)
03.05.2018 06:40 8,3 C 13,8 C 9,5 C 9,3 C 9,3 C 1,0 C 87 % 66 % 1011,6 hPa 0,0 l/m 0,8 km/h (0 Bft) SW 225 0 min 6,3 C 9,3 C 1,8 km/h (1 Bft)
03.05.2018 06:45 8,3 C 13,7 C 9,5 C 9,5 C 9,5 C 1,2 C 87 % 66 % 1011,6 hPa 0,0 l/m 1,8 km/h (1 Bft) O 90 0 min 6,3 C 9,5 C 3,7 km/h (1 Bft)
03.05.2018 06:50 8,3 C 13,7 C 9,6 C 9,6 C 9,6 C 1,3 C 87 % 66 % 1011,6 hPa 0,0 l/m 1,3 km/h (1 Bft) SO 135 0 min 6,3 C 9,6 C 1,9 km/h (1 Bft)
03.05.2018 06:55 8,4 C 13,7 C 9,6 C 9,8 C 9,8 C 1,4 C 87 % 65 % 1011,1 hPa 0,0 l/m 0,6 km/h (0 Bft) W-SW 247 0 min 6,4 C 9,8 C 1,9 km/h (1 Bft)
03.05.2018 07:00 8,4 C 13,7 C 9,9 C 10,2 C 10,2 C 1,8 C 87 % 65 % 1011,1 hPa 0,0 l/m 0,6 km/h (0 Bft) SW 225 0 min 6,4 C 10,2 C 1,6 km/h (1 Bft)
03.05.2018 07:05 8,4 C 13,7 C 10,0 C 11,4 C 11,4 C 3,0 C 87 % 65 % 1011,1 hPa 0,0 l/m 0,5 km/h (0 Bft) S 180 5 min 6,4 C 11,4 C 1,9 km/h (1 Bft)
03.05.2018 07:10 8,5 C 13,7 C 10,1 C 12,3 C 12,3 C 3,8 C 87 % 65 % 1011,1 hPa 0,0 l/m 0,6 km/h (0 Bft) SW 225 5 min 6,5 C 12,3 C 2,4 km/h (1 Bft)
03.05.2018 07:15 8,7 C 13,7 C 10,3 C 13,0 C 13,0 C 4,3 C 87 % 65 % 1012,0 hPa 0,0 l/m 1,3 km/h (1 Bft) S-SO 157 5 min 6,7 C 13,0 C 1,8 km/h (1 Bft)
03.05.2018 07:20 8,7 C 13,7 C 10,4 C 13,5 C 13,5 C 4,8 C 87 % 64 % 1012,0 hPa 0,0 l/m 1,3 km/h (1 Bft) SW 225 5 min 6,7 C 13,5 C 2,4 km/h (1 Bft)
03.05.2018 07:25 8,8 C 13,7 C 10,5 C 13,6 C 13,6 C 4,8 C 87 % 64 % 1012,0 hPa 0,0 l/m 1,4 km/h (1 Bft) SW 225 5 min 6,8 C 13,6 C 3,2 km/h (1 Bft)
03.05.2018 07:30 8,9 C 13,7 C 10,5 C 13,7 C 13,7 C 4,8 C 87 % 64 % 1012,0 hPa 0,0 l/m 1,8 km/h (1 Bft) S 180 5 min 6,9 C 13,7 C 5,3 km/h (1 Bft)
03.05.2018 07:35 8,8 C 13,6 C 10,5 C 12,6 C 12,6 C 3,8 C 87 % 65 % 1012,6 hPa 0,0 l/m 2,3 km/h (1 Bft) S-SW 202 5 min 6,8 C 12,6 C 1,6 km/h (1 Bft)
03.05.2018 07:40 8,9 C 13,7 C 10,5 C 12,2 C 12,2 C 3,3 C 87 % 65 % 1012,6 hPa 0,0 l/m 1,6 km/h (1 Bft) SW 225 5 min 6,9 C 12,2 C 0,0 km/h (0 Bft)
03.05.2018 07:45 9,1 C 13,7 C 10,6 C 12,4 C 12,4 C 3,3 C 87 % 65 % 1012,6 hPa 0,0 l/m 0,3 km/h (0 Bft) O-SO 112 5 min 7,1 C 12,4 C 0,0 km/h (0 Bft)
03.05.2018 07:50 9,2 C 13,6 C 10,7 C 12,5 C 12,5 C 3,3 C 87 % 65 % 1012,6 hPa 0,0 l/m 0,3 km/h (0 Bft) S 180 5 min 7,2 C 12,5 C 0,0 km/h (0 Bft)
03.05.2018 07:55 9,3 C 13,6 C 10,7 C 12,5 C 12,5 C 3,2 C 87 % 65 % 1012,8 hPa 0,0 l/m 0,3 km/h (0 Bft) S-SO 157 0 min 7,2 C 12,5 C 0,0 km/h (0 Bft)
03.05.2018 08:00 9,3 C 13,6 C 10,7 C 12,5 C 12,5 C 3,2 C 87 % 66 % 1012,8 hPa 0,0 l/m 0,5 km/h (0 Bft) SW 225 0 min 7,2 C 12,5 C 4,0 km/h (1 Bft)
03.05.2018 08:05 9,3 C 13,6 C 10,9 C 12,3 C 12,3 C 3,0 C 87 % 66 % 1012,8 hPa 0,0 l/m 1,0 km/h (0 Bft) S 180 0 min 7,2 C 12,3 C 1,9 km/h (1 Bft)
03.05.2018 08:10 9,4 C 13,6 C 10,9 C 12,5 C 12,5 C 3,1 C 87 % 66 % 1012,8 hPa 0,0 l/m 1,0 km/h (0 Bft) SW 225 0 min 7,3 C 12,5 C 0,0 km/h (0 Bft)
03.05.2018 08:15 9,6 C 13,6 C 10,9 C 12,5 C 12,5 C 2,9 C 86 % 66 % 1012,6 hPa 0,0 l/m 1,0 km/h (0 Bft) O-SO 112 0 min 7,4 C 12,5 C 0,0 km/h (0 Bft)
03.05.2018 08:20 9,7 C 13,6 C 10,9 C 12,5 C 12,5 C 2,8 C 86 % 67 % 1012,6 hPa 0,0 l/m 1,0 km/h (0 Bft) SW 225 0 min 7,5 C 12,5 C 0,0 km/h (0 Bft)
03.05.2018 08:25 9,7 C 13,5 C 11,1 C 12,5 C 12,5 C 2,8 C 86 % 67 % 1012,6 hPa 0,0 l/m 0,6 km/h (0 Bft) S 180 0 min 7,5 C 12,5 C 0,0 km/h (0 Bft)
03.05.2018 08:30 9,9 C 13,5 C 11,1 C 12,4 C 12,4 C 2,5 C 86 % 67 % 1012,6 hPa 0,0 l/m 0,5 km/h (0 Bft) W-SW 247 0 min 7,7 C 12,4 C 0,0 km/h (0 Bft)
03.05.2018 08:35 9,9 C 13,6 C 11,1 C 12,4 C 12,4 C 2,5 C 86 % 67 % 1013,6 hPa 0,0 l/m 0,2 km/h (0 Bft) W-SW 247 0 min 7,7 C 12,4 C 0,0 km/h (0 Bft)
03.05.2018 08:40 10,0 C 13,5 C 11,2 C 12,5 C 12,5 C 2,5 C 86 % 67 % 1013,6 hPa 0,0 l/m 0,3 km/h (0 Bft) SW 225 0 min 7,8 C 12,5 C 1,9 km/h (1 Bft)
03.05.2018 08:45 10,1 C 13,4 C 11,2 C 12,5 C 12,5 C 2,4 C 86 % 67 % 1013,6 hPa 0,0 l/m 1,3 km/h (1 Bft) SW 225 0 min 7,9 C 12,5 C 1,8 km/h (1 Bft)
03.05.2018 08:50 10,2 C 13,5 C 11,3 C 12,5 C 12,5 C 2,3 C 86 % 67 % 1013,6 hPa 0,0 l/m 1,3 km/h (1 Bft) S 180 0 min 8,0 C 12,5 C 0,0 km/h (0 Bft)
03.05.2018 08:55 10,3 C 13,5 C 11,3 C 12,8 C 12,8 C 2,5 C 86 % 69 % 1013,8 hPa 0,0 l/m 0,3 km/h (0 Bft) S 180 0 min 8,1 C 12,8 C 0,0 km/h (0 Bft)
03.05.2018 09:00 10,4 C 13,5 C 11,3 C 12,9 C 12,9 C 2,5 C 86 % 69 % 1013,8 hPa 0,0 l/m 0,0 km/h (0 Bft) O-SO 112 0 min 8,2 C 12,9 C 0,0 km/h (0 Bft)
03.05.2018 09:05 10,5 C 13,5 C 11,3 C 13,0 C 13,0 C 2,5 C 86 % 69 % 1013,8 hPa 0,0 l/m 0,0 km/h (0 Bft) O-SO 112 0 min 8,3 C 13,0 C 0,0 km/h (0 Bft)
03.05.2018 09:10 10,7 C 13,5 C 11,4 C 13,0 C 13,0 C 2,3 C 86 % 70 % 1013,8 hPa 0,0 l/m 0,0 km/h (0 Bft) NW 315 0 min 8,5 C 13,0 C 0,0 km/h (0 Bft)
03.05.2018 09:15 10,9 C 13,5 C 11,6 C 13,1 C 13,1 C 2,2 C 86 % 69 % 1013,8 hPa 0,0 l/m 0,0 km/h (0 Bft) SW 225 0 min 8,7 C 13,1 C 0,0 km/h (0 Bft)
03.05.2018 09:20 10,9 C 13,5 C 11,6 C 13,1 C 13,1 C 2,2 C 86 % 70 % 1013,8 hPa 0,0 l/m 0,0 km/h (0 Bft) S 180 0 min 8,7 C 13,1 C 0,0 km/h (0 Bft)
03.05.2018 09:25 10,9 C 13,5 C 11,7 C 13,1 C 13,1 C 2,2 C 86 % 70 % 1013,8 hPa 0,0 l/m 0,0 km/h (0 Bft) W-SW 247 0 min 8,7 C 13,1 C 0,0 km/h (0 Bft)
03.05.2018 09:30 11,1 C 13,5 C 11,7 C 13,2 C 13,2 C 2,1 C 86 % 70 % 1013,8 hPa 0,0 l/m 0,0 km/h (0 Bft) W-SW 247 0 min 8,8 C 13,2 C 0,0 km/h (0 Bft)
03.05.2018 09:35 11,2 C 13,4 C 11,8 C 13,3 C 13,3 C 2,1 C 86 % 71 % 1014,1 hPa 0,0 l/m 0,0 km/h (0 Bft) S 180 0 min 8,9 C 13,3 C 0,0 km/h (0 Bft)
03.05.2018 09:40 11,2 C 13,4 C 11,8 C 13,5 C 13,5 C 2,3 C 86 % 71 % 1014,1 hPa 0,0 l/m 0,0 km/h (0 Bft) W-SW 247 0 min 8,9 C 13,5 C 0,0 km/h (0 Bft)
03.05.2018 09:45 11,5 C 13,4 C 12,1 C 13,5 C 13,5 C 2,0 C 85 % 71 % 1014,1 hPa 0,0 l/m 0,0 km/h (0 Bft) S 180 0 min 9,1 C 13,5 C 0,0 km/h (0 Bft)
03.05.2018 09:50 11,4 C 13,4 C 12,0 C 13,6 C 13,6 C 2,2 C 85 % 72 % 1014,1 hPa 0,0 l/m 0,0 km/h (0 Bft) SO 135 0 min 9,0 C 13,6 C 0,0 km/h (0 Bft)
03.05.2018 09:55 11,7 C 13,4 C 12,1 C 13,7 C 13,7 C 2,0 C 85 % 71 % 1014,1 hPa 0,0 l/m 0,0 km/h (0 Bft) S-SO 157 0 min 9,3 C 13,7 C 0,0 km/h (0 Bft)
03.05.2018 10:00 11,6 C 13,4 C 12,1 C 13,6 C 13,6 C 2,0 C 85 % 72 % 1014,1 hPa 0,0 l/m 0,0 km/h (0 Bft) SW 225 0 min 9,2 C 13,6 C 0,0 km/h (0 Bft)
03.05.2018 10:05 11,7 C 13,4 C 12,3 C 13,5 C 13,5 C 1,8 C 85 % 72 % 1014,1 hPa 0,0 l/m 0,0 km/h (0 Bft) SW 225 0 min 9,3 C 13,5 C 0,0 km/h (0 Bft)
03.05.2018 10:10 11,8 C 13,4 C 12,3 C 13,6 C 13,6 C 1,8 C 85 % 73 % 1014,1 hPa 0,0 l/m 0,0 km/h (0 Bft) W-SW 247 0 min 9,4 C 13,6 C 0,0 km/h (0 Bft)
03.05.2018 10:15 11,9 C 13,3 C 12,3 C 13,7 C 13,7 C 1,8 C 85 % 73 % 1014,7 hPa 0,0 l/m 0,0 km/h (0 Bft) W-SW 247 0 min 9,5 C 13,7 C 0,0 km/h (0 Bft)
03.05.2018 10:20 11,9 C 13,3 C 12,5 C 13,8 C 13,8 C 1,9 C 84 % 72 % 1014,7 hPa 0,0 l/m 0,5 km/h (0 Bft) W-SW 247 0 min 9,3 C 13,8 C 1,9 km/h (1 Bft)
03.05.2018 10:25 12,0 C 13,3 C 12,7 C 13,9 C 13,9 C 1,9 C 84 % 72 % 1014,7 hPa 0,0 l/m 1,0 km/h (0 Bft) S 180 0 min 9,4 C 13,9 C 0,0 km/h (0 Bft)
03.05.2018 10:30 12,1 C 13,3 C 12,7 C 14,1 C 14,1 C 2,0 C 84 % 72 % 1014,7 hPa 0,0 l/m 0,8 km/h (0 Bft) W-SW 247 0 min 9,5 C 14,1 C 1,6 km/h (1 Bft)
03.05.2018 10:35 12,3 C 13,3 C 12,7 C 14,3 C 14,3 C 2,0 C 84 % 73 % 1014,9 hPa 0,0 l/m 0,2 km/h (0 Bft) SW 225 0 min 9,7 C 14,3 C 0,0 km/h (0 Bft)
03.05.2018 10:40 12,3 C 13,2 C 12,9 C 14,3 C 14,3 C 2,0 C 84 % 73 % 1014,9 hPa 0,0 l/m 0,3 km/h (0 Bft) N-NO 22 0 min 9,7 C 14,3 C 1,6 km/h (1 Bft)
03.05.2018 10:45 12,5 C 13,2 C 12,9 C 14,3 C 14,3 C 1,8 C 84 % 74 % 1014,9 hPa 0,0 l/m 0,3 km/h (0 Bft) SW 225 0 min 9,9 C 14,3 C 0,0 km/h (0 Bft)
03.05.2018 10:50 12,4 C 13,2 C 13,0 C 14,3 C 14,3 C 1,9 C 83 % 75 % 1014,9 hPa 0,0 l/m 0,5 km/h (0 Bft) S-SW 202 0 min 9,6 C 14,3 C 0,0 km/h (0 Bft)
03.05.2018 10:55 12,5 C 13,2 C 13,1 C 14,4 C 14,4 C 1,9 C 83 % 75 % 1014,7 hPa 0,0 l/m 0,5 km/h (0 Bft) W-SW 247 0 min 9,7 C 14,4 C 0,0 km/h (0 Bft)
03.05.2018 11:00 12,7 C 13,2 C 13,1 C 14,5 C 14,5 C 1,8 C 83 % 76 % 1014,7 hPa 0,0 l/m 0,3 km/h (0 Bft) W-NW 292 0 min 9,9 C 14,5 C 0,0 km/h (0 Bft)
03.05.2018 11:05 12,7 C 13,2 C 13,3 C 14,6 C 14,6 C 1,9 C 83 % 76 % 1014,7 hPa 0,0 l/m 0,2 km/h (0 Bft) SO 135 0 min 9,9 C 14,6 C 0,0 km/h (0 Bft)
03.05.2018 11:10 12,9 C 13,2 C 13,2 C 14,6 C 14,6 C 1,7 C 82 % 76 % 1014,7 hPa 0,0 l/m 0,2 km/h (0 Bft) W-SW 247 0 min 9,9 C 14,6 C 0,0 km/h (0 Bft)
03.05.2018 11:15 12,8 C 13,2 C 13,3 C 14,7 C 14,7 C 1,9 C 81 % 77 % 1015,4 hPa 0,0 l/m 0,2 km/h (0 Bft) SW 225 0 min 9,6 C 14,7 C 0,0 km/h (0 Bft)
03.05.2018 11:20 12,8 C 13,2 C 13,4 C 14,8 C 14,8 C 2,0 C 81 % 77 % 1015,4 hPa 0,0 l/m 0,6 km/h (0 Bft) S 180 0 min 9,6 C 14,8 C 1,8 km/h (1 Bft)
03.05.2018 11:25 13,0 C 13,3 C 13,5 C 14,9 C 14,9 C 1,9 C 82 % 78 % 1015,4 hPa 0,0 l/m 0,5 km/h (0 Bft) W-SW 247 0 min 10,0 C 14,9 C 0,0 km/h (0 Bft)
03.05.2018 11:30 13,1 C 13,2 C 13,6 C 15,2 C 15,2 C 2,1 C 82 % 77 % 1015,4 hPa 0,0 l/m 0,2 km/h (0 Bft) SW 225 0 min 10,1 C 15,2 C 0,0 km/h (0 Bft)
03.05.2018 11:35 13,3 C 13,2 C 13,7 C 15,4 C 15,4 C 2,1 C 81 % 78 % 1015,6 hPa 0,0 l/m 0,2 km/h (0 Bft) W 270 0 min 10,1 C 15,4 C 0,0 km/h (0 Bft)
03.05.2018 11:40 13,2 C 13,1 C 13,9 C 15,4 C 15,4 C 2,2 C 80 % 78 % 1015,6 hPa 0,0 l/m 0,2 km/h (0 Bft) SW 225 0 min 9,8 C 15,4 C 0,0 km/h (0 Bft)
03.05.2018 11:45 13,4 C 13,1 C 14,0 C 15,7 C 15,7 C 2,3 C 80 % 78 % 1015,6 hPa 0,0 l/m 0,0 km/h (0 Bft) S-SW 202 0 min 10,0 C 15,7 C 0,0 km/h (0 Bft)
03.05.2018 11:50 13,5 C 13,1 C 14,2 C 16,0 C 16,0 C 2,5 C 80 % 78 % 1015,6 hPa 0,0 l/m 0,2 km/h (0 Bft) S 180 0 min 10,1 C 16,0 C 2,3 km/h (1 Bft)
03.05.2018 11:55 13,7 C 13,1 C 14,4 C 16,5 C 16,5 C 2,8 C 79 % 78 % 1016,4 hPa 0,0 l/m 0,8 km/h (0 Bft) S 180 0 min 10,1 C 16,5 C 0,0 km/h (0 Bft)
03.05.2018 12:00 13,9 C 13,1 C 14,8 C 17,0 C 17,0 C 3,1 C 79 % 79 % 1016,4 hPa 0,0 l/m 1,0 km/h (0 Bft) NW 315 0 min 10,3 C 17,0 C 3,7 km/h (1 Bft)
03.05.2018 12:05 14,0 C 13,1 C 14,8 C 17,5 C 17,5 C 3,5 C 78 % 82 % 1016,4 hPa 0,0 l/m 1,3 km/h (1 Bft) NW 315 5 min 10,2 C 17,5 C 7,2 km/h (2 Bft)
03.05.2018 12:10 14,3 C 13,1 C 15,0 C 18,0 C 18,0 C 3,7 C 77 % 83 % 1016,4 hPa 0,0 l/m 1,8 km/h (1 Bft) SW 225 5 min 10,3 C 18,0 C 2,4 km/h (1 Bft)
03.05.2018 12:15 14,4 C 13,1 C 15,4 C 18,7 C 18,7 C 4,3 C 77 % 83 % 1015,6 hPa 0,0 l/m 1,3 km/h (1 Bft) SW 225 5 min 10,4 C 18,7 C 0,0 km/h (0 Bft)
03.05.2018 12:20 14,6 C 13,1 C 15,6 C 19,2 C 19,2 C 4,6 C 76 % 83 % 1015,6 hPa 0,0 l/m 1,9 km/h (1 Bft) S-SW 202 5 min 10,4 C 19,2 C 3,4 km/h (1 Bft)
03.05.2018 12:25 14,8 C 13,1 C 16,0 C 19,4 C 19,4 C 4,6 C 75 % 84 % 1015,6 hPa 0,0 l/m 2,6 km/h (1 Bft) S 180 5 min 10,4 C 19,4 C 0,0 km/h (0 Bft)
03.05.2018 12:30 14,9 C 13,1 C 16,0 C 19,6 C 19,6 C 4,7 C 74 % 85 % 1015,6 hPa 0,0 l/m 3,4 km/h (1 Bft) W-SW 247 5 min 10,3 C 19,6 C 4,5 km/h (1 Bft)
03.05.2018 12:35 15,1 C 13,1 C 15,9 C 19,9 C 19,9 C 4,8 C 73 % 87 % 1015,8 hPa 0,0 l/m 2,7 km/h (1 Bft) S-SW 202 5 min 10,3 C 19,9 C 2,1 km/h (1 Bft)
03.05.2018 12:40 15,4 C 13,1 C 16,3 C 20,3 C 20,3 C 4,9 C 73 % 86 % 1015,8 hPa 0,0 l/m 2,3 km/h (1 Bft) SW 225 5 min 10,6 C 20,3 C 4,8 km/h (1 Bft)
03.05.2018 12:45 15,6 C 13,1 C 16,7 C 20,7 C 20,7 C 5,1 C 71 % 86 % 1015,8 hPa 0,0 l/m 2,9 km/h (1 Bft) W-SW 247 5 min 10,4 C 20,7 C 6,1 km/h (2 Bft)
03.05.2018 12:50 15,8 C 13,1 C 16,9 C 21,3 C 21,3 C 5,5 C 71 % 86 % 1015,8 hPa 0,0 l/m 3,2 km/h (1 Bft) W-NW 292 5 min 10,6 C 21,3 C 0,0 km/h (0 Bft)
03.05.2018 12:55 16,0 C 13,1 C 16,8 C 21,5 C 21,5 C 5,5 C 70 % 87 % 1015,9 hPa 0,0 l/m 3,1 km/h (1 Bft) NW 315 5 min 10,5 C 21,5 C 4,8 km/h (1 Bft)
03.05.2018 13:00 16,0 C 13,1 C 17,1 C 21,4 C 21,4 C 5,4 C 70 % 87 % 1015,9 hPa 0,0 l/m 3,4 km/h (1 Bft) W 270 5 min 10,5 C 21,4 C 9,0 km/h (2 Bft)
03.05.2018 13:05 16,1 C 13,1 C 17,4 C 21,5 C 21,5 C 5,4 C 70 % 87 % 1015,9 hPa 0,0 l/m 3,4 km/h (1 Bft) S 180 5 min 10,6 C 21,5 C 0,0 km/h (0 Bft)
03.05.2018 13:10 16,4 C 13,1 C 17,7 C 21,9 C 21,9 C 5,5 C 70 % 87 % 1015,9 hPa 0,0 l/m 3,5 km/h (1 Bft) S 180 5 min 10,9 C 21,9 C 5,5 km/h (1 Bft)
03.05.2018 13:15 16,3 C 13,1 C 17,7 C 21,3 C 21,3 C 5,0 C 68 % 87 % 1015,8 hPa 0,0 l/m 3,7 km/h (1 Bft) S-SO 157 5 min 10,4 C 21,3 C 5,3 km/h (1 Bft)
03.05.2018 13:20 16,3 C 13,1 C 17,7 C 21,0 C 21,0 C 4,7 C 68 % 87 % 1015,8 hPa 0,0 l/m 4,0 km/h (1 Bft) O-SO 112 5 min 10,4 C 21,0 C 3,5 km/h (1 Bft)
03.05.2018 13:25 16,5 C 13,1 C 17,7 C 21,1 C 21,1 C 4,6 C 68 % 87 % 1015,8 hPa 0,0 l/m 2,7 km/h (1 Bft) SW 225 5 min 10,6 C 21,1 C 3,5 km/h (1 Bft)
03.05.2018 13:30 16,7 C 13,1 C 17,9 C 21,3 C 21,3 C 4,6 C 67 % 87 % 1015,8 hPa 0,0 l/m 2,1 km/h (1 Bft) W-SW 247 5 min 10,5 C 21,3 C 0,0 km/h (0 Bft)
03.05.2018 13:35 16,8 C 13,1 C 17,9 C 21,4 C 21,4 C 4,6 C 65 % 88 % 1015,2 hPa 0,0 l/m 1,9 km/h (1 Bft) S-SO 157 5 min 10,2 C 21,4 C 2,3 km/h (1 Bft)
03.05.2018 13:40 16,8 C 13,1 C 17,6 C 21,5 C 21,5 C 4,7 C 66 % 84 % 1015,2 hPa 0,0 l/m 1,9 km/h (1 Bft) O-NO 67 5 min 10,4 C 21,5 C 1,6 km/h (1 Bft)
03.05.2018 13:45 16,8 C 13,1 C 17,7 C 21,7 C 21,7 C 4,9 C 65 % 87 % 1015,2 hPa 0,0 l/m 1,9 km/h (1 Bft) S-SW 202 5 min 10,2 C 21,7 C 4,8 km/h (1 Bft)
03.05.2018 13:50 17,1 C 13,2 C 18,2 C 22,2 C 22,2 C 5,1 C 65 % 88 % 1015,2 hPa 0,0 l/m 2,3 km/h (1 Bft) S 180 5 min 10,5 C 22,2 C 3,9 km/h (1 Bft)
03.05.2018 13:55 17,4 C 13,2 C 18,3 C 22,4 C 22,4 C 5,0 C 65 % 88 % 1015,4 hPa 0,0 l/m 2,6 km/h (1 Bft) S 180 5 min 10,8 C 22,4 C 4,8 km/h (1 Bft)
03.05.2018 14:00 17,7 C 13,1 C 18,5 C 22,6 C 22,6 C 4,9 C 63 % 87 % 1015,4 hPa 0,0 l/m 2,9 km/h (1 Bft) S-SW 202 5 min 10,6 C 22,6 C 4,0 km/h (1 Bft)
03.05.2018 14:05 18,0 C 13,1 C 19,3 C 23,5 C 23,5 C 5,5 C 63 % 87 % 1015,4 hPa 0,0 l/m 3,1 km/h (1 Bft) SO 135 5 min 10,8 C 23,5 C 2,7 km/h (1 Bft)
03.05.2018 14:10 18,0 C 13,1 C 18,9 C 23,4 C 23,4 C 5,4 C 60 % 84 % 1015,4 hPa 0,0 l/m 2,9 km/h (1 Bft) N-NW 337 5 min 10,1 C 23,4 C 4,8 km/h (1 Bft)
03.05.2018 14:15 17,9 C 13,1 C 18,8 C 23,0 C 23,0 C 5,1 C 61 % 85 % 1015,8 hPa 0,0 l/m 3,1 km/h (1 Bft) W-NW 292 5 min 10,3 C 23,0 C 4,7 km/h (1 Bft)
03.05.2018 14:20 17,9 C 13,1 C 18,7 C 22,8 C 22,8 C 4,9 C 59 % 83 % 1015,8 hPa 0,0 l/m 2,9 km/h (1 Bft) N 360 5 min 9,8 C 22,8 C 1,9 km/h (1 Bft)
03.05.2018 14:25 18,0 C 13,1 C 18,5 C 22,3 C 22,3 C 4,3 C 59 % 84 % 1015,8 hPa 0,0 l/m 2,7 km/h (1 Bft) S-SW 202 5 min 9,9 C 22,3 C 1,8 km/h (1 Bft)
03.05.2018 14:30 18,2 C 13,1 C 18,9 C 22,8 C 22,8 C 4,6 C 59 % 83 % 1015,8 hPa 0,0 l/m 2,7 km/h (1 Bft) W-SW 247 5 min 10,1 C 22,8 C 1,9 km/h (1 Bft)
03.05.2018 14:35 18,7 C 13,1 C 19,2 C 24,1 C 24,1 C 5,4 C 60 % 85 % 1015,6 hPa 0,0 l/m 1,8 km/h (1 Bft) SW 225 5 min 10,8 C 24,1 C 2,9 km/h (1 Bft)
03.05.2018 14:40 18,8 C 13,2 C 19,2 C 24,3 C 24,3 C 5,5 C 60 % 84 % 1015,6 hPa 0,0 l/m 1,8 km/h (1 Bft) W-SW 247 5 min 10,9 C 24,3 C 3,2 km/h (1 Bft)
03.05.2018 14:45 19,0 C 13,2 C 19,3 C 24,8 C 24,8 C 5,8 C 59 % 82 % 1015,6 hPa 0,0 l/m 2,6 km/h (1 Bft) SO 135 5 min 10,8 C 24,8 C 3,9 km/h (1 Bft)
03.05.2018 14:50 19,2 C 13,2 C 19,5 C 24,9 C 24,9 C 5,7 C 59 % 81 % 1015,6 hPa 0,0 l/m 2,7 km/h (1 Bft) NW 315 5 min 11,0 C 24,9 C 3,4 km/h (1 Bft)
03.05.2018 14:55 19,1 C 13,2 C 19,5 C 25,4 C 25,4 C 6,3 C 56 % 78 % 1015,7 hPa 0,0 l/m 2,9 km/h (1 Bft) W-SW 247 5 min 10,1 C 25,4 C 3,2 km/h (1 Bft)
03.05.2018 15:00 19,2 C 13,2 C 19,2 C 25,4 C 25,4 C 6,2 C 58 % 78 % 1015,7 hPa 0,0 l/m 2,3 km/h (1 Bft) O 90 5 min 10,7 C 25,4 C 2,1 km/h (1 Bft)
03.05.2018 15:05 19,4 C 13,2 C 19,5 C 26,0 C 26,0 C 6,6 C 56 % 80 % 1015,7 hPa 0,0 l/m 2,4 km/h (1 Bft) O-SO 112 5 min 10,4 C 26,0 C 2,1 km/h (1 Bft)
03.05.2018 15:10 19,7 C 13,2 C 19,5 C 25,8 C 25,8 C 6,1 C 56 % 78 % 1015,7 hPa 0,0 l/m 3,1 km/h (1 Bft) SW 225 5 min 10,7 C 25,8 C 6,9 km/h (2 Bft)
03.05.2018 15:15 19,6 C 13,2 C 19,3 C 25,8 C 25,8 C 6,2 C 56 % 78 % 1015,8 hPa 0,0 l/m 2,7 km/h (1 Bft) NW 315 5 min 10,6 C 25,8 C 4,2 km/h (1 Bft)
03.05.2018 15:20 19,5 C 13,3 C 19,3 C 25,4 C 25,4 C 5,9 C 55 % 79 % 1015,8 hPa 0,0 l/m 2,6 km/h (1 Bft) W-NW 292 5 min 10,2 C 25,4 C 0,0 km/h (0 Bft)
03.05.2018 15:25 19,5 C 13,3 C 19,2 C 25,3 C 25,3 C 5,8 C 55 % 74 % 1015,8 hPa 0,0 l/m 3,2 km/h (1 Bft) W-SW 247 5 min 10,2 C 25,3 C 11,3 km/h (2 Bft)
03.05.2018 15:30 19,5 C 13,3 C 19,5 C 25,2 C 25,2 C 5,7 C 56 % 76 % 1015,8 hPa 0,0 l/m 3,9 km/h (1 Bft) SW 225 5 min 10,5 C 25,2 C 4,8 km/h (1 Bft)
03.05.2018 15:35 19,5 C 13,3 C 19,5 C 24,6 C 24,6 C 5,1 C 56 % 76 % 1015,6 hPa 0,0 l/m 3,7 km/h (1 Bft) SW 225 5 min 10,5 C 24,6 C 15,1 km/h (3 Bft)
03.05.2018 15:40 19,4 C 13,3 C 19,6 C 24,7 C 24,7 C 5,3 C 56 % 75 % 1015,6 hPa 0,0 l/m 2,9 km/h (1 Bft) W 270 5 min 10,4 C 24,7 C 3,4 km/h (1 Bft)
03.05.2018 15:45 19,7 C 13,3 C 19,9 C 25,6 C 25,6 C 5,9 C 55 % 73 % 1015,6 hPa 0,0 l/m 2,4 km/h (1 Bft) N-NW 337 5 min 10,4 C 25,6 C 6,6 km/h (2 Bft)
03.05.2018 15:50 19,7 C 13,3 C 19,9 C 25,9 C 25,9 C 6,2 C 55 % 73 % 1015,6 hPa 0,0 l/m 2,9 km/h (1 Bft) W-SW 247 5 min 10,4 C 25,9 C 6,0 km/h (2 Bft)
03.05.2018 15:55 19,4 C 13,3 C 19,5 C 24,4 C 24,4 C 5,0 C 55 % 73 % 1015,9 hPa 0,0 l/m 3,4 km/h (1 Bft) W-SW 247 5 min 10,1 C 24,4 C 3,9 km/h (1 Bft)
03.05.2018 16:00 19,3 C 13,3 C 19,3 C 23,5 C 23,5 C 4,2 C 54 % 73 % 1015,9 hPa 0,0 l/m 3,5 km/h (1 Bft) W-SW 247 5 min 9,8 C 23,5 C 7,7 km/h (2 Bft)
03.05.2018 16:05 18,9 C 13,3 C 19,2 C 22,4 C 22,4 C 3,5 C 55 % 71 % 1015,9 hPa 0,0 l/m 2,7 km/h (1 Bft) SO 135 5 min 9,7 C 22,4 C 2,3 km/h (1 Bft)
03.05.2018 16:10 18,9 C 13,3 C 19,2 C 22,7 C 22,7 C 3,8 C 56 % 71 % 1015,9 hPa 0,0 l/m 2,3 km/h (1 Bft) S-SW 202 5 min 9,9 C 22,7 C 0,0 km/h (0 Bft)
03.05.2018 16:15 18,8 C 13,4 C 19,2 C 22,6 C 22,6 C 3,8 C 55 % 72 % 1015,6 hPa 0,0 l/m 2,4 km/h (1 Bft) W 270 5 min 9,6 C 22,6 C 3,2 km/h (1 Bft)
03.05.2018 16:20 19,0 C 13,4 C 19,2 C 23,2 C 23,2 C 4,2 C 57 % 72 % 1015,6 hPa 0,0 l/m 2,6 km/h (1 Bft) SW 225 5 min 10,3 C 23,2 C 5,1 km/h (1 Bft)
03.05.2018 16:25 19,1 C 13,4 C 19,2 C 23,3 C 23,3 C 4,2 C 57 % 72 % 1015,6 hPa 0,0 l/m 2,6 km/h (1 Bft) NW 315 5 min 10,4 C 23,3 C 0,0 km/h (0 Bft)
03.05.2018 16:30 19,1 C 13,4 C 19,5 C 24,0 C 24,0 C 4,9 C 57 % 69 % 1015,6 hPa 0,0 l/m 2,7 km/h (1 Bft) NO 45 5 min 10,4 C 24,0 C 5,5 km/h (1 Bft)
03.05.2018 16:35 19,2 C 13,4 C 19,9 C 24,8 C 24,8 C 5,6 C 56 % 70 % 1015,9 hPa 0,0 l/m 3,1 km/h (1 Bft) W 270 5 min 10,2 C 24,8 C 9,0 km/h (2 Bft)
03.05.2018 16:40 19,2 C 13,4 C 20,1 C 25,0 C 25,0 C 5,8 C 55 % 69 % 1015,9 hPa 0,0 l/m 3,5 km/h (1 Bft) NW 315 5 min 9,9 C 25,0 C 3,9 km/h (1 Bft)
03.05.2018 16:45 19,4 C 13,4 C 20,5 C 25,7 C 25,7 C 6,3 C 57 % 68 % 1015,9 hPa 0,0 l/m 2,6 km/h (1 Bft) SW 225 5 min 10,7 C 25,7 C 4,0 km/h (1 Bft)
03.05.2018 16:50 19,6 C 13,5 C 20,7 C 26,0 C 26,0 C 6,4 C 56 % 65 % 1015,9 hPa 0,0 l/m 2,1 km/h (1 Bft) W 270 5 min 10,6 C 26,0 C 2,4 km/h (1 Bft)
03.05.2018 16:55 19,7 C 13,5 C 20,1 C 25,0 C 25,0 C 5,3 C 55 % 59 % 1016,0 hPa 0,0 l/m 2,9 km/h (1 Bft) NW 315 5 min 10,4 C 25,0 C 5,5 km/h (1 Bft)
03.05.2018 17:00 19,5 C 13,5 C 20,2 C 25,1 C 25,1 C 5,6 C 55 % 61 % 1016,0 hPa 0,0 l/m 3,2 km/h (1 Bft) W 270 5 min 10,2 C 25,1 C 7,6 km/h (2 Bft)
03.05.2018 17:05 19,2 C 13,5 C 19,9 C 24,2 C 24,2 C 5,0 C 55 % 59 % 1016,0 hPa 0,0 l/m 3,9 km/h (1 Bft) N-NW 337 5 min 9,9 C 24,2 C 4,2 km/h (1 Bft)
03.05.2018 17:10 19,2 C 13,5 C 19,7 C 23,5 C 23,5 C 4,3 C 55 % 61 % 1016,0 hPa 0,0 l/m 4,2 km/h (1 Bft) S 180 5 min 9,9 C 23,5 C 6,4 km/h (2 Bft)
03.05.2018 17:15 19,0 C 13,5 C 19,7 C 23,1 C 23,1 C 4,1 C 56 % 60 % 1015,9 hPa 0,0 l/m 4,0 km/h (1 Bft) NW 315 5 min 10,0 C 23,1 C 2,4 km/h (1 Bft)
03.05.2018 17:20 19,1 C 13,5 C 19,6 C 23,3 C 23,3 C 4,2 C 56 % 60 % 1015,9 hPa 0,0 l/m 4,0 km/h (1 Bft) W 270 5 min 10,1 C 23,3 C 3,2 km/h (1 Bft)
03.05.2018 17:25 19,1 C 13,5 C 19,2 C 22,6 C 22,6 C 3,5 C 56 % 61 % 1015,9 hPa 0,0 l/m 3,4 km/h (1 Bft) S-SW 202 5 min 10,1 C 22,6 C 2,7 km/h (1 Bft)
03.05.2018 17:30 19,1 C 13,6 C 19,4 C 23,0 C 23,0 C 3,9 C 56 % 62 % 1015,9 hPa 0,0 l/m 2,7 km/h (1 Bft) W 270 5 min 10,1 C 23,0 C 2,3 km/h (1 Bft)
03.05.2018 17:35 19,2 C 13,6 C 19,5 C 23,7 C 23,7 C 4,5 C 56 % 60 % 1015,7 hPa 0,0 l/m 3,1 km/h (1 Bft) NW 315 5 min 10,2 C 23,7 C 7,2 km/h (2 Bft)
03.05.2018 17:40 19,2 C 13,6 C 19,6 C 24,0 C 24,0 C 4,8 C 56 % 61 % 1015,7 hPa 0,0 l/m 2,9 km/h (1 Bft) N-NO 22 5 min 10,2 C 24,0 C 0,0 km/h (0 Bft)
03.05.2018 17:45 19,3 C 13,6 C 19,3 C 23,3 C 23,3 C 4,0 C 55 % 62 % 1015,7 hPa 0,0 l/m 2,1 km/h (1 Bft) NW 315 5 min 10,0 C 23,3 C 3,9 km/h (1 Bft)
03.05.2018 17:50 19,1 C 13,6 C 19,1 C 22,3 C 22,3 C 3,2 C 55 % 60 % 1015,7 hPa 0,0 l/m 2,7 km/h (1 Bft) S 180 0 min 9,8 C 22,3 C 3,2 km/h (1 Bft)
03.05.2018 17:55 18,8 C 13,6 C 18,9 C 21,1 C 21,1 C 2,3 C 56 % 62 % 1016,1 hPa 0,0 l/m 3,1 km/h (1 Bft) W 270 0 min 9,8 C 21,1 C 1,9 km/h (1 Bft)
03.05.2018 18:00 18,7 C 13,6 C 18,7 C 20,6 C 20,6 C 1,9 C 56 % 61 % 1016,1 hPa 0,0 l/m 2,4 km/h (1 Bft) N-NW 337 0 min 9,7 C 20,6 C 4,3 km/h (1 Bft)
03.05.2018 18:05 18,4 C 13,6 C 18,6 C 20,1 C 20,1 C 1,7 C 57 % 61 % 1016,1 hPa 0,0 l/m 2,6 km/h (1 Bft) W 270 0 min 9,7 C 20,1 C 2,6 km/h (1 Bft)
03.05.2018 18:10 18,4 C 13,6 C 18,6 C 20,1 C 20,1 C 1,7 C 57 % 62 % 1016,1 hPa 0,0 l/m 2,7 km/h (1 Bft) S 180 0 min 9,7 C 20,1 C 4,5 km/h (1 Bft)
03.05.2018 18:15 18,4 C 13,6 C 18,6 C 20,9 C 20,9 C 2,5 C 57 % 61 % 1016,3 hPa 0,0 l/m 2,6 km/h (1 Bft) SW 225 0 min 9,7 C 20,9 C 0,0 km/h (0 Bft)
03.05.2018 18:20 18,5 C 13,6 C 18,7 C 21,0 C 21,0 C 2,5 C 57 % 61 % 1016,3 hPa 0,0 l/m 2,7 km/h (1 Bft) NW 315 0 min 9,8 C 21,0 C 5,3 km/h (1 Bft)
03.05.2018 18:25 18,3 C 13,6 C 18,3 C 20,5 C 20,5 C 2,2 C 56 % 60 % 1016,3 hPa 0,0 l/m 2,9 km/h (1 Bft) NW 315 0 min 9,4 C 20,5 C 1,9 km/h (1 Bft)
03.05.2018 18:30 18,3 C 13,7 C 18,2 C 20,1 C 20,1 C 1,8 C 57 % 60 % 1016,3 hPa 0,0 l/m 3,1 km/h (1 Bft) W-NW 292 0 min 9,6 C 20,1 C 6,4 km/h (2 Bft)
03.05.2018 18:35 18,0 C 13,7 C 18,1 C 19,6 C 19,6 C 1,6 C 57 % 61 % 1016,4 hPa 0,0 l/m 2,7 km/h (1 Bft) NW 315 0 min 9,4 C 19,6 C 2,1 km/h (1 Bft)
03.05.2018 18:40 18,1 C 13,7 C 18,0 C 19,4 C 19,4 C 1,3 C 57 % 61 % 1016,4 hPa 0,0 l/m 2,1 km/h (1 Bft) S-SW 202 0 min 9,4 C 19,4 C 0,0 km/h (0 Bft)
03.05.2018 18:45 18,1 C 13,7 C 18,0 C 19,4 C 19,4 C 1,3 C 57 % 61 % 1016,4 hPa 0,0 l/m 1,4 km/h (1 Bft) SW 225 0 min 9,4 C 19,4 C 1,9 km/h (1 Bft)
03.05.2018 18:50 18,0 C 13,7 C 17,9 C 19,3 C 19,3 C 1,3 C 57 % 61 % 1016,4 hPa 0,0 l/m 1,9 km/h (1 Bft) W 270 0 min 9,4 C 19,3 C 3,7 km/h (1 Bft)
03.05.2018 18:55 17,9 C 13,7 C 17,7 C 18,9 C 18,9 C 1,0 C 57 % 61 % 1016,6 hPa 0,0 l/m 1,8 km/h (1 Bft) S-SW 202 0 min 9,3 C 18,9 C 0,0 km/h (0 Bft)
03.05.2018 19:00 17,8 C 13,7 C 17,7 C 18,7 C 18,7 C 0,9 C 57 % 62 % 1016,6 hPa 0,0 l/m 2,3 km/h (1 Bft) N-NO 22 0 min 9,2 C 18,7 C 5,8 km/h (2 Bft)
03.05.2018 19:05 17,6 C 13,7 C 17,4 C 18,2 C 18,2 C 0,6 C 57 % 62 % 1016,6 hPa 0,0 l/m 2,4 km/h (1 Bft) N-NW 337 0 min 9,0 C 18,2 C 4,7 km/h (1 Bft)
03.05.2018 19:10 17,5 C 13,8 C 17,2 C 18,0 C 18,0 C 0,5 C 57 % 62 % 1016,6 hPa 0,0 l/m 2,7 km/h (1 Bft) NW 315 0 min 8,9 C 18,0 C 3,2 km/h (1 Bft)
03.05.2018 19:15 17,3 C 13,8 C 17,1 C 17,6 C 17,6 C 0,3 C 58 % 63 % 1016,6 hPa 0,0 l/m 2,4 km/h (1 Bft) N-NW 337 0 min 9,0 C 17,6 C 2,1 km/h (1 Bft)
03.05.2018 19:20 17,2 C 13,8 C 17,1 C 17,4 C 17,4 C 0,2 C 58 % 63 % 1016,6 hPa 0,0 l/m 2,3 km/h (1 Bft) W 270 0 min 8,9 C 17,4 C 0,0 km/h (0 Bft)
03.05.2018 19:25 17,1 C 13,8 C 16,9 C 17,2 C 17,2 C 0,1 C 58 % 63 % 1016,6 hPa 0,0 l/m 1,8 km/h (1 Bft) SO 135 0 min 8,8 C 17,2 C 0,0 km/h (0 Bft)
03.05.2018 19:30 17,1 C 13,8 C 16,8 C 17,1 C 17,1 C 0,0 C 59 % 64 % 1016,6 hPa 0,0 l/m 1,3 km/h (1 Bft) N-NO 22 0 min 9,0 C 17,1 C 2,7 km/h (1 Bft)
03.05.2018 19:35 16,9 C 13,8 C 16,7 C 16,9 C 16,9 C 0,0 C 59 % 65 % 1017,0 hPa 0,0 l/m 1,8 km/h (1 Bft) NW 315 0 min 8,8 C 16,9 C 2,9 km/h (1 Bft)
03.05.2018 19:40 16,8 C 13,8 C 16,6 C 16,8 C 16,8 C 0,0 C 59 % 64 % 1017,0 hPa 0,0 l/m 2,1 km/h (1 Bft) NW 315 0 min 8,7 C 16,8 C 2,3 km/h (1 Bft)
03.05.2018 19:45 16,7 C 13,8 C 16,5 C 16,7 C 16,6 C 0,0 C 59 % 64 % 1017,0 hPa 0,0 l/m 2,3 km/h (1 Bft) S 180 0 min 8,6 C 16,6 C 2,6 km/h (1 Bft)
03.05.2018 19:50 16,7 C 13,8 C 16,5 C 16,6 C 16,5 C 0,0 C 59 % 64 % 1017,0 hPa 0,0 l/m 1,9 km/h (1 Bft) W 270 0 min 8,6 C 16,5 C 2,4 km/h (1 Bft)
03.05.2018 19:55 16,5 C 13,8 C 16,3 C 16,5 C 16,4 C 0,0 C 60 % 64 % 1017,2 hPa 0,0 l/m 2,4 km/h (1 Bft) S-SW 202 0 min 8,7 C 16,4 C 0,0 km/h (0 Bft)
03.05.2018 20:00 16,4 C 13,8 C 16,1 C 16,4 C 16,3 C 0,0 C 60 % 65 % 1017,2 hPa 0,0 l/m 2,4 km/h (1 Bft) N-NW 337 0 min 8,6 C 16,3 C 3,9 km/h (1 Bft)
03.05.2018 20:05 16,4 C 13,8 C 16,1 C 16,3 C 16,2 C 0,0 C 60 % 65 % 1017,2 hPa 0,0 l/m 1,3 km/h (1 Bft) N-NW 337 0 min 8,6 C 16,2 C 2,7 km/h (1 Bft)
03.05.2018 20:10 16,3 C 13,8 C 16,1 C 16,2 C 16,1 C 0,0 C 60 % 65 % 1017,2 hPa 0,0 l/m 1,4 km/h (1 Bft) NW 315 0 min 8,5 C 16,1 C 3,7 km/h (1 Bft)
03.05.2018 20:15 16,3 C 13,8 C 15,9 C 16,2 C 16,0 C 0,0 C 61 % 66 % 1017,4 hPa 0,0 l/m 1,8 km/h (1 Bft) N 360 0 min 8,8 C 16,0 C 2,4 km/h (1 Bft)
03.05.2018 20:20 16,2 C 13,8 C 15,9 C 16,1 C 15,9 C 0,0 C 61 % 66 % 1017,4 hPa 0,0 l/m 1,9 km/h (1 Bft) NW 315 0 min 8,7 C 15,9 C 0,0 km/h (0 Bft)
03.05.2018 20:25 16,1 C 13,8 C 15,9 C 16,0 C 15,8 C 0,0 C 61 % 67 % 1017,4 hPa 0,0 l/m 1,3 km/h (1 Bft) S-SO 157 0 min 8,6 C 15,8 C 0,0 km/h (0 Bft)
03.05.2018 20:30 16,0 C 13,8 C 15,7 C 15,9 C 15,7 C 0,0 C 62 % 67 % 1017,4 hPa 0,0 l/m 0,8 km/h (0 Bft) SW 225 0 min 8,7 C 15,7 C 0,0 km/h (0 Bft)
03.05.2018 20:35 16,0 C 13,8 C 15,6 C 15,9 C 15,6 C 0,0 C 62 % 67 % 1017,8 hPa 0,0 l/m 0,6 km/h (0 Bft) N 360 0 min 8,7 C 15,6 C 0,0 km/h (0 Bft)
03.05.2018 20:40 15,9 C 13,8 C 15,5 C 15,8 C 15,5 C 0,0 C 62 % 68 % 1017,8 hPa 0,0 l/m 0,6 km/h (0 Bft) S-SO 157 0 min 8,6 C 15,5 C 0,0 km/h (0 Bft)
03.05.2018 20:45 15,9 C 13,8 C 15,5 C 15,8 C 15,5 C 0,0 C 62 % 68 % 1017,8 hPa 0,0 l/m 0,6 km/h (0 Bft) SW 225 0 min 8,6 C 15,5 C 0,0 km/h (0 Bft)
03.05.2018 20:50 15,9 C 13,8 C 15,5 C 15,7 C 15,4 C 0,0 C 62 % 68 % 1017,8 hPa 0,0 l/m 0,8 km/h (0 Bft) O-NO 67 0 min 8,6 C 15,4 C 1,8 km/h (1 Bft)
03.05.2018 20:55 15,7 C 13,8 C 15,4 C 15,6 C 15,4 C 0,0 C 62 % 68 % 1017,9 hPa 0,0 l/m 1,0 km/h (0 Bft) NW 315 0 min 8,4 C 15,4 C 0,0 km/h (0 Bft)
03.05.2018 21:00 15,7 C 13,8 C 15,3 C 15,6 C 15,3 C 0,0 C 63 % 68 % 1017,9 hPa 0,0 l/m 1,6 km/h (1 Bft) W-NW 292 0 min 8,7 C 15,3 C 3,1 km/h (1 Bft)
03.05.2018 21:05 15,6 C 13,8 C 15,3 C 15,5 C 15,3 C 0,0 C 62 % 68 % 1017,9 hPa 0,0 l/m 1,4 km/h (1 Bft) N-NO 22 0 min 8,3 C 15,3 C 1,8 km/h (1 Bft)
03.05.2018 21:10 15,7 C 13,8 C 15,3 C 15,5 C 15,2 C 0,0 C 63 % 68 % 1017,9 hPa 0,0 l/m 1,4 km/h (1 Bft) W 270 0 min 8,7 C 15,2 C 0,0 km/h (0 Bft)
03.05.2018 21:15 15,5 C 13,8 C 15,3 C 15,4 C 15,2 C 0,0 C 63 % 68 % 1018,4 hPa 0,0 l/m 1,0 km/h (0 Bft) NW 315 0 min 8,5 C 15,2 C 1,9 km/h (1 Bft)
03.05.2018 21:20 15,5 C 13,8 C 15,2 C 15,4 C 15,2 C 0,0 C 63 % 69 % 1018,4 hPa 0,0 l/m 0,8 km/h (0 Bft) N-NW 337 0 min 8,5 C 15,2 C 2,9 km/h (1 Bft)
03.05.2018 21:25 15,5 C 13,8 C 15,0 C 15,3 C 15,0 C 0,0 C 64 % 69 % 1018,4 hPa 0,0 l/m 0,5 km/h (0 Bft) N-NO 22 0 min 8,7 C 15,0 C 0,0 km/h (0 Bft)
03.05.2018 21:30 15,3 C 13,8 C 15,1 C 15,2 C 15,0 C 0,0 C 64 % 69 % 1018,4 hPa 0,0 l/m 0,5 km/h (0 Bft) O-NO 67 0 min 8,5 C 15,0 C 0,0 km/h (0 Bft)
03.05.2018 21:35 15,2 C 13,8 C 14,9 C 15,1 C 14,9 C 0,0 C 64 % 69 % 1018,4 hPa 0,0 l/m 0,8 km/h (0 Bft) N-NO 22 0 min 8,4 C 14,9 C 0,0 km/h (0 Bft)
03.05.2018 21:40 15,2 C 13,8 C 14,8 C 15,1 C 14,9 C 0,0 C 64 % 70 % 1018,4 hPa 0,0 l/m 0,6 km/h (0 Bft) W-SW 247 0 min 8,4 C 14,9 C 0,0 km/h (0 Bft)
03.05.2018 21:45 15,2 C 13,8 C 14,9 C 15,1 C 14,8 C 0,0 C 65 % 70 % 1018,4 hPa 0,0 l/m 0,6 km/h (0 Bft) NW 315 0 min 8,7 C 14,8 C 2,7 km/h (1 Bft)
03.05.2018 21:50 15,1 C 13,8 C 14,8 C 15,0 C 14,8 C 0,0 C 65 % 71 % 1018,4 hPa 0,0 l/m 0,8 km/h (0 Bft) N-NW 337 0 min 8,6 C 14,8 C 0,0 km/h (0 Bft)
03.05.2018 21:55 15,1 C 13,8 C 14,7 C 15,0 C 14,7 C 0,0 C 65 % 71 % 1018,9 hPa 0,0 l/m 0,6 km/h (0 Bft) O-SO 112 0 min 8,6 C 14,7 C 0,0 km/h (0 Bft)
03.05.2018 22:00 15,1 C 13,8 C 14,7 C 15,0 C 14,7 C 0,0 C 65 % 71 % 1018,9 hPa 0,0 l/m 0,3 km/h (0 Bft) N-NO 22 0 min 8,6 C 14,7 C 0,0 km/h (0 Bft)
03.05.2018 22:05 15,0 C 13,8 C 14,7 C 14,9 C 14,7 C 0,0 C 65 % 71 % 1018,9 hPa 0,0 l/m 0,3 km/h (0 Bft) NW 315 0 min 8,5 C 14,7 C 2,4 km/h (1 Bft)
03.05.2018 22:10 15,0 C 13,9 C 14,7 C 14,9 C 14,6 C 0,0 C 65 % 72 % 1018,9 hPa 0,0 l/m 0,5 km/h (0 Bft) NW 315 0 min 8,5 C 14,6 C 0,0 km/h (0 Bft)
03.05.2018 22:15 14,9 C 13,9 C 14,5 C 14,8 C 14,6 C 0,0 C 65 % 72 % 1018,9 hPa 0,0 l/m 1,0 km/h (0 Bft) SO 135 0 min 8,4 C 14,6 C 0,0 km/h (0 Bft)
03.05.2018 22:20 14,9 C 13,9 C 14,5 C 14,8 C 14,6 C 0,0 C 65 % 72 % 1018,9 hPa 0,0 l/m 1,0 km/h (0 Bft) S-SO 157 0 min 8,4 C 14,6 C 0,0 km/h (0 Bft)
03.05.2018 22:25 14,8 C 13,8 C 14,5 C 14,7 C 14,6 C 0,0 C 65 % 70 % 1018,9 hPa 0,0 l/m 0,6 km/h (0 Bft) W 270 0 min 8,3 C 14,6 C 0,0 km/h (0 Bft)
03.05.2018 22:30 14,9 C 13,8 C 14,5 C 14,8 C 14,6 C 0,0 C 65 % 70 % 1018,9 hPa 0,0 l/m 1,4 km/h (1 Bft) S-SW 202 0 min 8,4 C 14,6 C 2,6 km/h (1 Bft)
03.05.2018 22:35 14,8 C 13,8 C 14,5 C 14,7 C 14,6 C 0,0 C 64 % 69 % 1018,9 hPa 0,0 l/m 2,4 km/h (1 Bft) O-NO 67 0 min 8,1 C 14,6 C 2,4 km/h (1 Bft)
03.05.2018 22:40 14,7 C 13,8 C 14,4 C 14,7 C 14,6 C 0,0 C 64 % 69 % 1018,9 hPa 0,0 l/m 2,4 km/h (1 Bft) W-NW 292 0 min 8,0 C 14,6 C 5,1 km/h (1 Bft)
03.05.2018 22:45 14,7 C 13,8 C 14,4 C 14,6 C 14,5 C 0,0 C 63 % 68 % 1018,9 hPa 0,0 l/m 2,3 km/h (1 Bft) W-SW 247 0 min 7,7 C 14,5 C 2,1 km/h (1 Bft)
03.05.2018 22:50 14,6 C 13,8 C 14,3 C 14,5 C 14,4 C 0,0 C 63 % 68 % 1018,9 hPa 0,0 l/m 1,6 km/h (1 Bft) N-NO 22 0 min 7,6 C 14,4 C 0,0 km/h (0 Bft)
03.05.2018 22:55 14,5 C 13,8 C 14,3 C 14,4 C 14,3 C 0,0 C 63 % 69 % 1019,1 hPa 0,0 l/m 1,0 km/h (0 Bft) S 180 0 min 7,5 C 14,3 C 1,6 km/h (1 Bft)
03.05.2018 23:00 14,5 C 13,8 C 14,2 C 14,4 C 14,2 C 0,0 C 63 % 68 % 1019,1 hPa 0,0 l/m 1,6 km/h (1 Bft) N-NO 22 0 min 7,5 C 14,2 C 4,2 km/h (1 Bft)
03.05.2018 23:05 14,5 C 13,8 C 14,1 C 14,4 C 14,1 C 0,0 C 63 % 68 % 1019,1 hPa 0,0 l/m 1,6 km/h (1 Bft) N 360 0 min 7,5 C 14,1 C 3,7 km/h (1 Bft)
03.05.2018 23:10 14,4 C 13,8 C 14,0 C 14,3 C 14,1 C 0,0 C 62 % 67 % 1019,1 hPa 0,0 l/m 1,4 km/h (1 Bft) O-NO 67 0 min 7,2 C 14,1 C 1,6 km/h (1 Bft)
03.05.2018 23:15 14,3 C 13,8 C 14,0 C 14,2 C 14,0 C 0,0 C 61 % 67 % 1019,4 hPa 0,0 l/m 2,3 km/h (1 Bft) O-NO 67 0 min 6,9 C 14,0 C 2,3 km/h (1 Bft)
03.05.2018 23:20 14,3 C 13,8 C 13,9 C 14,2 C 13,9 C 0,0 C 61 % 66 % 1019,4 hPa 0,0 l/m 2,6 km/h (1 Bft) W-NW 292 0 min 6,9 C 13,9 C 4,5 km/h (1 Bft)
03.05.2018 23:25 14,1 C 13,8 C 13,9 C 14,0 C 13,9 C 0,0 C 60 % 65 % 1019,4 hPa 0,0 l/m 2,3 km/h (1 Bft) W-SW 247 0 min 6,5 C 13,9 C 2,1 km/h (1 Bft)
03.05.2018 23:30 14,0 C 13,8 C 13,8 C 13,9 C 13,7 C 0,0 C 60 % 64 % 1019,4 hPa 0,0 l/m 2,4 km/h (1 Bft) S 180 0 min 6,4 C 13,7 C 4,8 km/h (1 Bft)
03.05.2018 23:35 14,0 C 13,8 C 13,6 C 13,9 C 13,7 C 0,0 C 60 % 65 % 1019,3 hPa 0,0 l/m 2,3 km/h (1 Bft) O 90 0 min 6,4 C 13,7 C 0,0 km/h (0 Bft)
03.05.2018 23:40 13,9 C 13,8 C 13,7 C 13,8 C 13,6 C 0,0 C 60 % 66 % 1019,3 hPa 0,0 l/m 1,9 km/h (1 Bft) NW 315 0 min 6,3 C 13,6 C 3,2 km/h (1 Bft)
03.05.2018 23:45 13,8 C 13,8 C 13,5 C 13,7 C 13,5 C 0,0 C 61 % 66 % 1019,3 hPa 0,0 l/m 1,8 km/h (1 Bft) N-NO 22 0 min 6,4 C 13,5 C 2,4 km/h (1 Bft)
03.05.2018 23:50 13,7 C 13,8 C 13,4 C 13,6 C 13,4 C 0,0 C 61 % 66 % 1019,3 hPa 0,0 l/m 2,3 km/h (1 Bft) O-NO 67 0 min 6,3 C 13,4 C 4,0 km/h (1 Bft)
03.05.2018 23:55 13,6 C 13,8 C 13,5 C 13,5 C 13,3 C 0,0 C 61 % 65 % 1019,9 hPa 0,0 l/m 2,6 km/h (1 Bft) O-NO 67 0 min 6,2 C 13,3 C 1,6 km/h (1 Bft)
_ Min-Zeit 06:40 11:40 06:35 06:25 06:25 00:00 16:00 16:55 00:35 - 00:00 - - - 23:55 06:25 00:00
Minimum _ 8,3 C 13,1 C 9,3 C 9,1 C 9,1 C 0,0 C 54 % 59 % 1010,8 hPa - 0,0 km/h (0 Bft) - - - 6,2 C 9,1 C 0,0 km/h (0 Bft)
_ Max-Zeit 15:10 00:15 16:50 15:05 15:05 15:05 04:50 00:20 23:55 01:55 17:10 - - 05:55 14:50 15:05 15:35
Maximum _ 19,7 C 14,2 C 20,7 C 26,0 C 26,0 C 6,6 C 87 % 89 % 1019,9 hPa 0,7 l/m 4,2 km/h
S (1 Bft)
- - 5 min 11,0 C 26,0 C 15,1 km/h
SW (3 Bft)
Durchschnitt _ 13,5 C 13,6 C 14,0 C 15,5 C 15,4 C 2,0 C 73 % 72 % 1014,6 hPa #2,7 l/m 1,4 km/h (1 Bft) NW - #6:55 h 8,5 C 15,4 C 1,8 km/h (1 Bft)
2018 www.wetterstation-wechselburg.de